Location: *
(42.0535°S, 135.7763°W)
Time: 02:19:26
(UTC+00:00)

Daily predictions for brighter satellites

Satellite Brightness Start Highest point End
(mag) Time Altitude Azimuth Time Altitude Azimuth Time Altitude Azimuth
Cosmos 2100 Rocket 4.4 02:00:52 10° S 02:06:54 44° ESE 02:12:47 10° NNE
Cosmos 968 Rocket 3.6 02:02:08 10° SSW 02:07:27 61° ESE 02:12:38 10° NNE
Cosmos 724 4.5 02:04:10 10° NNW 02:10:16 77° ENE 02:16:30 10° SE
YAOGAN 6 4.1 02:07:22 10° S 02:10:42 37° WSW 02:13:59 10° NW
Cosmos 2058 4.4 02:07:32 10° NNW 02:11:30 40° WSW 02:15:30 10° S
Envisat 3.8 02:08:10 10° S 02:13:14 56° WSW 02:18:13 10° NNW
CZ-2C R/B 2.9 02:11:37 10° SSE 02:16:30 85° ENE 02:21:30 10° NNW
Cosmos 1980 Rocket 2.7 02:12:02 10° S 02:17:17 38° ESE 02:22:29 10° NE
Cosmos 2221 2.7 02:15:57 10° S 02:20:26 84° W 02:24:51 10° N
CZ-4B R/B 4.2 02:16:11 10° SSE 02:20:38 61° E 02:24:52 10° N
SJ 16-02 3.2 02:21:42 10° SSE 02:23:27 12° SE 02:25:11 10° ESE
Cosmos 1812 3.7 02:20:11 10° SSE 02:23:29 25° ESE 02:26:44 10° NE
DMSP B5D2-2 4.1 02:18:31 10° NNE 02:23:44 68° ESE 02:29:00 10° S
Cosmos 1842 Rocket 3.5 02:19:17 10° S 02:23:48 80° E 02:28:12 10° N
Aureole 1 Rocket 4.3 02:17:40 10° S 02:24:33 45° ESE 02:29:55 10° NE
DELTA 2 R/B (1) 4.4 02:19:16 10° NW 02:24:35 44° NNE 02:29:54 10° E
CZ-4B R/B 4.4 02:23:09 10° SE 02:25:39 17° E 02:28:12 10° NE
Cosmos 2322 Rocket 4.0 02:24:10 10° SSE 02:25:54 11° SE 02:27:37 10° ESE
SKYMED 2 3.8 02:22:01 10° N 02:26:23 78° WNW 02:30:50 10° SSW
H-2A R/B 4.2 02:23:33 10° S 02:27:12 39° WSW 02:30:51 10° NW
USA 215 3.7 02:21:18 10° E 02:27:26 43° SSE 02:33:36 10° SW
Cosmos 2082 Rocket 2.3 02:23:29 10° N 02:28:59 56° ENE 02:34:31 10° SSE
NOAA 11 4.4 02:25:23 10° S 02:30:55 80° WSW 02:36:25 10° NNW
Cosmos 2123 Rocket 4.4 02:26:05 10° NNE 02:32:01 43° E 02:38:01 10° SSE
Cosmos 2369 3.8 02:26:58 10° SSW 02:32:38 57° ESE 02:38:13 10° NE
Cosmos 1697 Rocket 2.9 02:29:30 10° SSW 02:35:14 82° WNW 02:40:54 10° NNE
Cosmos 2061 Rocket 4.5 02:29:54 10° S 02:35:53 39° ESE 02:41:43 10° NE
USA 306 3.1 02:31:58 10° SW 02:36:06 49° SSE 02:40:11 10° ENE
Cosmos 1725 Rocket 4.4 02:30:54 10° S 02:36:50 41° ESE 02:42:44 10° NE
CZ-4C R/B 4.4 02:35:17 10° ENE 02:37:26 17° ESE 02:39:39 10° SSE
GENESIS II 4.0 02:35:58 10° SSW 02:39:44 76° SE 02:43:26 10° NE
H-2A R/B 2.8 02:35:44 10° SE 02:40:00 28° E 02:44:12 10° NNE
RESURS DK-1 2.8 02:36:18 10° SSW 02:40:17 40° ESE 02:44:13 10° NE
USA 307 3.2 02:37:11 10° SW 02:41:18 47° SSE 02:45:10 11° ENE
Lacrosse 5 3.5 02:42:27 10° SSW 02:46:02 19° SSE 02:48:20 14° SE
FengYun 1-2 T 4.3 02:41:48 10° SSE 02:47:18 55° E 02:52:43 10° N
ADEOS 3.7 02:44:51 10° SSE 02:50:03 54° E 02:55:11 10° N
NOAA 12 4.1 02:44:54 10° SSE 02:50:15 67° ENE 02:55:31 10° N
Cosmos 1862 3.9 02:48:54 10° NNE 02:52:33 36° E 02:55:58 12° SSE
CZ-2C R/B 2.7 02:55:11 10° NW 02:58:28 26° N 03:00:52 14° NE
ERBS 3.7 02:56:42 10° SSW 02:58:56 20° SSE 02:58:56 20° SSE
Cosmos 2084 3.9 02:55:48 10° NNW 03:00:31 57° ENE 03:03:38 21° SE
Cosmos 2151 3.5 02:58:48 10° NNW 03:03:05 62° W 03:07:26 10° S
Meteor 1-31 Rocket 4.1 03:00:49 10° S 03:04:36 42° WSW 03:08:20 10° NW
SL-16 R/B 3.1 03:03:03 10° S 03:07:54 28° SE 03:09:28 24° E
COSMOS 2406 4.1 03:05:09 10° NW 03:10:38 48° WSW 03:16:11 10° SSE
USA 308 2.7 03:08:00 10° SW 03:12:16 78° SE 03:14:53 22° ENE
NOAA 6 4.4 03:08:17 14° SSE 03:12:26 42° E 03:17:17 10° N
AQUARIUS 4.4 03:09:25 15° SSE 03:13:01 49° E 03:17:24 10° N
Landsat 5 3.7 03:12:46 10° N 03:17:15 79° WNW 03:21:39 10° SSW
Cosmos 2016 Rocket 4.0 03:12:58 10° S 03:19:17 86° W 03:25:36 10° N
Cosmos 1777 Rocket 4.4 03:14:38 10° S 03:19:33 38° ESE 03:21:36 27° ENE
Cosmos 2233 Rocket 4.0 03:19:16 10° S 03:25:34 64° E 03:31:50 10° NNE
Cosmos 1354 Rocket 3.9 03:20:21 10° SSW 03:25:39 67° ESE 03:30:53 10° NNE
Cosmos 1782 4.3 03:22:50 10° SSW 03:26:33 37° W 03:30:13 10° NNW
Cosmos 2360 Rocket 3.8 03:25:21 10° S 03:27:40 17° SSE 03:27:40 17° SSE
Cosmos 2278 3.6 03:24:43 10° SSW 03:30:28 86° ESE 03:36:09 10° NNE
BREEZE-M DEB (TANK) 4.1 03:28:01 10° WSW 03:30:46 20° SSW 03:30:46 20° SSW
SMAP 3.0 03:27:44 10° SSE 03:32:30 87° WSW 03:37:11 10° NNW
SAR-Lupe-3 4.4 03:32:17 57° SSE 03:32:57 78° ENE 03:36:36 10° N
USA 305 3.3 03:29:25 10° WSW 03:33:34 59° NW 03:35:58 23° NNE
Meteor 1-10 Rocket 4.2 03:28:08 10° S 03:33:49 60° ESE 03:39:20 10° NNE
CZ-4B DEB 4.5 03:35:36 40° ESE 03:36:32 44° E 03:41:44 10° N
Lacrosse 5 rocket 3.4 03:35:45 10° SSW 03:37:00 14° S 03:37:00 14° S
Cosmos 1263 4.4 03:34:54 10° N 03:38:06 68° N 03:38:06 68° N
ATLAS 5 CENTAUR R/B 4.3 03:33:42 10° NNE 03:36:33 17° NE 03:36:33 17° NE
USA 281 3.1 03:34:23 15° SSE 03:40:06 79° ENE 03:46:43 10° NNW
Meteor 1-27 Rocket 4.1 03:35:25 10° S 03:39:51 39° SE 03:39:51 39° SE
Radarsat 4.5 03:36:52 12° SSE 03:41:53 90° ENE 03:47:08 10° NNW
Cosmos 1151 Rocket 2.9 03:37:36 10° S 03:42:05 87° E 03:46:27 10° N
SL-8 R/B 3.6 03:41:36 10° WNW 03:46:25 84° NNE 03:47:05 66° ESE
ARGOS 3.0 03:49:24 38° SSE 03:51:30 70° ENE 03:56:51 10° N
CZ-2D R/B 4.1 03:55:01 32° SSW 03:56:25 48° WSW 04:00:07 10° NNW
CZ-4B R/B 4.3 03:58:46 20° SSW 04:00:44 34° WSW 04:04:18 10° NW
Cosmos 1980 Rocket 3.9 03:56:13 10° SW 04:01:09 32° WNW 04:06:02 10° NNW
SJ 16-02 1.4 03:58:07 10° SSW 04:02:31 75° W 04:02:31 75° W
USA 215 3.4 04:06:23 27° NNE 04:10:11 70° NW 04:16:49 10° SW
DELTA 2 R/B (1) 3.6 04:05:07 10° W 04:10:43 69° N 04:10:50 69° NNE
Cosmos 2322 Rocket 2.8 04:05:33 10° SSW 04:09:31 42° S 04:09:31 42° S
Cosmos 2082 Rocket 4.2 04:08:56 10° WNW 04:13:26 24° SW 04:17:44 11° S
H-2A R/B 3.5 04:14:58 10° S 04:19:26 34° WSW 04:23:51 10° NW
Cosmos 2333 Rocket 4.4 04:17:09 10° S 04:17:58 14° S 04:17:58 14° S
Lacrosse 5 3.4 04:25:03 10° SW 04:27:34 27° SSW 04:27:34 27° SSW
CZ-2C R/B 4.1 04:34:09 10° WNW 04:34:45 13° WNW 04:34:45 13° WNW
ATLAS 3B CENTAUR R/B 4.4 04:40:49 10° WNW 04:47:46 22° NNW 04:49:34 20° N
SL-16 R/B 3.2 04:46:46 10° SW 04:51:25 44° W 04:51:25 44° W
Cosmos 2360 Rocket 4.5 05:08:23 10° SSW 05:09:27 16° SSW 05:09:27 16° SSW
ATLAS 5 CENTAUR R/B 4.3 05:15:11 10° NNW 05:18:05 26° NNW 05:18:05 26° NNW
